This is the latest recevied weather packets stored in our database for station/object K7MT-WX. If no packets are shown the sender has not sent any weather packets the latest 10 day(s).
| Time | Temp. | Humidity | Pressure | Rain* | Wind** | Luminosity | Snow |
|---|---|---|---|---|---|---|---|
| 1788447708 | 12.22° C | 77% | 1011 hPa | 0 mm | - | - | - |
| 1788446778 | 10.56° C | 79% | 1011 hPa | 0 mm | - | - | - |
| 1788445848 | 10° C | 83% | 1011 hPa | 0 mm | - | - | - |
| 1788444948 | 9.44° C | 84% | 1011.2 hPa | 0 mm | - | - | - |
| 1788444048 | 8.89° C | 85% | 1011.1 hPa | 0 mm | - | - | - |
| 1788443147 | 8.33° C | 87% | 1011 hPa | 0 mm | - | - | - |
| 1788442247 | 7.78° C | 88% | 1011.2 hPa | 0 mm | - | - | - |
| 1788441347 | 7.78° C | 88% | 1011 hPa | 0 mm | - | - | - |
| 1788440447 | 7.78° C | 89% | 1010.7 hPa | 0 mm | - | - | - |
| 1788439547 | 7.22° C | 88% | 1010.3 hPa | 0 mm | - | - | - |
| 1788438647 | 7.22° C | 88% | 1010.1 hPa | 0 mm | - | - | - |
| 1788437747 | 7.22° C | 88% | 1010.1 hPa | 0 mm | - | - | - |
| 1788436847 | 7.22° C | 88% | 1010 hPa | 0 mm | - | - | - |
| 1788435947 | 7.22° C | 88% | 1009.8 hPa | 0 mm | - | - | - |
| 1788435047 | 7.22° C | 89% | 1009.8 hPa | 0 mm | - | - | - |
| 1788434147 | 6.67° C | 88% | 1009.7 hPa | 0 mm | - | - | - |
| 1788433255 | 6.67° C | 88% | 1009.6 hPa | 0 mm | - | - | - |
| 1788432347 | 6.67° C | 88% | 1009.5 hPa | 0 mm | - | - | - |
| 1788431447 | 6.67° C | 88% | 1009.3 hPa | 0 mm | - | - | - |
| 1788430547 | 6.67° C | 88% | 1009.2 hPa | 0 mm | - | - | - |
| 1788429647 | 6.67° C | 87% | 1009.1 hPa | 0 mm | - | - | - |
| 1788428747 | 7.22° C | 86% | 1009 hPa | 0 mm | - | - | - |
| 1788427847 | 7.22° C | 86% | 1009 hPa | 0 mm | - | - | - |
| 1788426966 | 7.22° C | 86% | 1009 hPa | 0 mm | - | - | - |
| 1788426047 | 7.22° C | 86% | 1008.9 hPa | 0 mm | - | - | - |
* Rain latest hour (hover to see other rain measurements)
** Current wind speed in m/s (hover to see current wind gust speed)